RH
60 59 54 46 42 37 30 25 21 20 25 33 39 40 55 55 45 38 37 39 42 37
62 53 49 47 40 32 26 22 20 22 29 35 46 40 46 44 34 33 39 45 49 43
53 53 50 43 36 28 23 21 22 29 36 47 46 42 42 36 39 43 52 51 50 42
56 50 47 37 29 26 24 22 25 34 38 42 43 43 50 46 48 54 55 57 48 42
54 49 41 34 29 27 25 24 27 34 40 41 41 51 51 51 59 60 63 62 47 42
51 44 39 33 29 28 27 26 28 32 36 45 51 54 54 59 68 69 68 63 48 45
48 44 39 33 30 29 28 28 33 39 44 50 52 58 60 67 68 69 75 60 50 45
49 43 38 34 30 28 29 31 37 39 44 53 60 67 69 67 74 79 70 54 43 37
46 43 37 33 29 27 30 32 36 42 48 57 63 67 70 77 80 76 54 42 37 41
44 39 35 32 30 29 29 33 39 47 56 63 69 72 76 77 67 52 43 38 40 42
38 36 33 32 31 30 32 35 42 49 57 62 67 71 65 55 48 42 38 42 44 46
36 33 33 32 32 34 37 43 49 54 58 57 57 52 50 46 42 40 44 45 46 45
31 30 29 30 34 38 42 47 50 54 55 53 51 50 48 45 42 45 48 45 41 44
29 28 28 31 38 42 45 47 51 55 56 54 54 51 51 47 48 51 48 41 35 42